Weather History for EGHE - October, 2012

Change the Weather History Date:

Saturday, October 6, 2012

  Actual Average Record
Temperature  
Mean Temperature 53 °F -  
Max Temperature 56 °F 55 °F 64 °F (2013)
Min Temperature 50 °F 52 °F 49 °F (2014)
Degree Days  
Heating Degree Days 12    
Growing Degree Days 3 (Base 50)    
Moisture  
Dew Point 48 °F    
Average Humidity 78    
Maximum Humidity 98    
Minimum Humidity 62    
Precipitation  
Precipitation 0.01 in - - ()
Sea Level Pressure  
Sea Level Pressure 29.89 in    
Wind  
Wind Speed 19 mph ()    
Max Wind Speed 25 mph    
Max Gust Speed -    
Visibility 6.6 miles    
Events Rain    
Averages and records for this station are not official NWS values.
T = Trace of Precipitation, MM = Missing Value Source: Averaged Metar Reports

Daily Weather History Graph

Daily Weather History Graph

Search for Another Location

Airport or City:

Trip Planner

Search our weather history database for the weather conditions in past years. The results will help you decide how hot, cold, wet, or windy it might be!

Date:

Astronomy

Oct. 06, 2012 Rise Set
Actual Time 7:33 AM BST 6:52 PM BST
Civil Twilight 7:01 AM BST 7:24 PM BST
Nautical Twilight 6:23 AM BST 8:01 PM BST
Astronomical Twilight 5:45 AM BST 8:39 PM BST
Moon 10:28 PM BST (10/6) 1:44 PM BST (10/6)
Length of Visible Light 12h 23m
Length of Day
11h 18m
Waning Gibbous, 67% of the Moon is Illuminated
Oct 6
Waning Gibbous
Oct 8
Last Quarter
Oct 15
New
Oct 22
First Quarter
Oct 29
Full

Hourly Weather History & Observations

Time (BST) Temp. Dew Point Humidity Pressure Visibility Wind Dir Wind Speed Gust Speed Precip Events Conditions
12:50 AM 51 °F 51 °F 98% 29.73 in 3 mi NNE 25.3 mph - - Rain Light Rain
3:50 AM 52 °F 49 °F 88% 29.78 in 28 mi NE 19.6 mph - - Rain Rain
6:50 AM 52 °F 47 °F 79% 29.83 in 31 mi NE 20.7 mph - -   Scattered Clouds
6:50 AM 51.8 °F 48.2 °F 88% 29.80 in 6.2 mi NE 21.9 mph - N/A   Scattered Clouds
7:20 AM 51.8 °F 48.2 °F 88% 29.83 in 6.2 mi NE 21.9 mph - N/A   Scattered Clouds
7:50 AM 53.6 °F 48.2 °F 82% 29.83 in 6.2 mi NE 20.7 mph - N/A   Scattered Clouds
8:20 AM 53.6 °F 48.2 °F 82% 29.86 in 6.2 mi NE 21.9 mph - N/A   Scattered Clouds
8:50 AM 53.6 °F 48.2 °F 82% 29.86 in 6.2 mi ENE 20.7 mph - N/A   Scattered Clouds
9:20 AM 53.6 °F 50.0 °F 88% 29.86 in 6.2 mi ENE 20.7 mph - N/A   Scattered Clouds
9:50 AM 55 °F 49 °F 76% 29.90 in 28 mi ENE 20.7 mph - -   Partly Cloudy
9:50 AM 55.4 °F 48.2 °F 77% 29.89 in 6.2 mi ENE 19.6 mph - N/A   Partly Cloudy
10:20 AM 53.6 °F 46.4 °F 77% 29.89 in 6.2 mi ENE 20.7 mph - N/A   Partly Cloudy
10:50 AM 53.6 °F 48.2 °F 82% 29.89 in 6.2 mi NE 21.9 mph - N/A   Partly Cloudy
11:20 AM 55.4 °F 46.4 °F 72% 29.89 in 6.2 mi ENE 24.2 mph - N/A   Partly Cloudy
11:50 AM 55.4 °F 46.4 °F 72% 29.92 in 6.2 mi ENE 19.6 mph - N/A   Partly Cloudy
12:20 PM 55.4 °F 44.6 °F 67% 29.92 in 6.2 mi ENE 23.0 mph - N/A   Partly Cloudy
12:50 PM 55 °F 46 °F 62% 29.92 in 18 mi ENE 23.0 mph - -   Mostly Cloudy
12:50 PM 55.4 °F 46.4 °F 72% 29.92 in 6.2 mi ENE 21.9 mph - N/A   Partly Cloudy
1:20 PM 53.6 °F 46.4 °F 77% 29.92 in 6.2 mi ENE 25.3 mph - N/A   Partly Cloudy
1:50 PM 55.4 °F 48.2 °F 77% 29.92 in 6.2 mi ENE 17.3 mph - N/A   Partly Cloudy
2:20 PM 55.4 °F 48.2 °F 77% 29.92 in 6.2 mi NE 19.6 mph - N/A   Partly Cloudy
2:50 PM 55.4 °F 48.2 °F 77% 29.92 in 6.2 mi NE 19.6 mph - N/A   Partly Cloudy
3:20 PM 55.4 °F 48.2 °F 77% 29.92 in 6.2 mi NE 20.7 mph - N/A   Partly Cloudy
3:50 PM 56 °F 49 °F 69% 29.94 in 28 mi NE 18.4 mph - -  
3:50 PM 55.4 °F 48.2 °F 77% 29.92 in 6.2 mi NE 18.4 mph - N/A   Partly Cloudy
4:20 PM 55.4 °F 48.2 °F 77% 29.92 in 6.2 mi NE 15.0 mph - N/A   Partly Cloudy
4:50 PM 55.4 °F 48.2 °F 77% 29.95 in 6.2 mi NE 15.0 mph - N/A   Partly Cloudy
6:50 PM 54 °F 48 °F 74% 30.00 in 31 mi NE 15.0 mph - -   Partly Cloudy
9:50 PM 55 °F 48 °F 69% 30.04 in 28 mi NE 16.1 mph - -   Mostly Cloudy